Hourly Weather Dziarnowko

Today, 16 May, Sunday

Time Temperature Precipitation Wind Pressure Humidity
00:00 +10°C° 0 mm 2 mps 746 mmHg 82%
01:00 +10°C° 0 mm 2 mps 745 mmHg 82%
02:00 +10°C° 0 mm 3 mps 745 mmHg 82%
03:00 +10°C° 0 mm 3 mps 745 mmHg 82%
04:00 +10°C° 0 mm 3 mps 745 mmHg 82%
05:00 +11°C° 0 mm 3 mps 745 mmHg 81%
06:00 +12°C° 0 mm 3 mps 744 mmHg 81%
07:00 +12°C° 0 mm 3 mps 744 mmHg 81%
08:00 +13°C° 0.2 mm 3 mps 744 mmHg 81%
09:00 +14°C° 0.2 mm 3 mps 744 mmHg 80%
10:00 +14°C° 0.2 mm 4 mps 744 mmHg 80%
11:00 +16°C° 0.4 mm 3 mps 744 mmHg 77%
12:00 +17°C° 0.4 mm 3 mps 744 mmHg 75%
13:00 +17°C° 0.4 mm 3 mps 743 mmHg 72%
14:00 +17°C° 0.8 mm 3 mps 743 mmHg 76%
15:00 +16°C° 0.8 mm 3 mps 743 mmHg 81%
16:00 +16°C° 0.8 mm 3 mps 743 mmHg 85%
17:00 +14°C° 0.5 mm 3 mps 743 mmHg 87%
18:00 +14°C° 0.5 mm 2 mps 743 mmHg 88%
19:00 +13°C° 0.5 mm 2 mps 743 mmHg 90%
20:00 +13°C° 0 mm 2 mps 743 mmHg 91%
21:00 +12°C° 0 mm 2 mps 743 mmHg 93%
22:00 +10°C° 0 mm 3 mps 743 mmHg 94%
23:00 +10°C° 0 mm 3 mps 743 mmHg 94%

Tomorrow, 17 May, Monday

Time Temperature Precipitation Wind Pressure Humidity
00:00 +9°C° 0 mm 3 mps 743 mmHg 94%
01:00 +8°C° 0 mm 2 mps 744 mmHg 95%
02:00 +8°C° 0 mm 2 mps 744 mmHg 94%
03:00 +8°C° 0 mm 2 mps 744 mmHg 94%
04:00 +7°C° 0 mm 2 mps 744 mmHg 94%
05:00 +9°C° 0 mm 2 mps 744 mmHg 90%
06:00 +11°C° 0 mm 3 mps 744 mmHg 85%
07:00 +13°C° 0 mm 3 mps 745 mmHg 81%
08:00 +14°C° 0 mm 3 mps 744 mmHg 75%
09:00 +17°C° 0 mm 4 mps 744 mmHg 68%
10:00 +18°C° 0 mm 4 mps 744 mmHg 62%
11:00 +18°C° 0.1 mm 4 mps 744 mmHg 59%
12:00 +19°C° 0.1 mm 3 mps 744 mmHg 56%
13:00 +20°C° 0.1 mm 3 mps 744 mmHg 53%
14:00 +19°C° 0.2 mm 3 mps 744 mmHg 60%
15:00 +18°C° 0.2 mm 3 mps 744 mmHg 66%
16:00 +17°C° 0.2 mm 3 mps 744 mmHg 73%
17:00 +14°C° 0.3 mm 4 mps 744 mmHg 80%
18:00 +13°C° 0.3 mm 4 mps 744 mmHg 87%
19:00 +11°C° 0.3 mm 4 mps 744 mmHg 93%
20:00 +11°C° 0.1 mm 4 mps 744 mmHg 94%
21:00 +11°C° 0.1 mm 4 mps 744 mmHg 94%
22:00 +10°C° 0.1 mm 3 mps 743 mmHg 95%
23:00 +10°C° 0.2 mm 3 mps 743 mmHg 96%

Day after tomorrow, 18 May, Tuesday

Time Temperature Precipitation Wind Pressure Humidity
00:00 +10°C° 0.2 mm 3 mps 744 mmHg 96%
01:00 +10°C° 0.2 mm 3 mps 744 mmHg 97%
02:00 +10°C° 0.3 mm 3 mps 743 mmHg 97%
03:00 +10°C° 0.3 mm 3 mps 743 mmHg 97%
04:00 +10°C° 0.3 mm 3 mps 743 mmHg 98%
05:00 +10°C° 0.3 mm 3 mps 743 mmHg 97%
06:00 +10°C° 0.3 mm 4 mps 743 mmHg 97%
07:00 +10°C° 0.3 mm 4 mps 743 mmHg 96%
08:00 +10°C° 0.2 mm 4 mps 744 mmHg 96%
09:00 +10°C° 0.2 mm 4 mps 744 mmHg 95%
10:00 +10°C° 0.2 mm 4 mps 745 mmHg 94%
11:00 +10°C° 0.3 mm 4 mps 745 mmHg 92%
12:00 +11°C° 0.3 mm 4 mps 745 mmHg 90%
13:00 +11°C° 0.3 mm 4 mps 746 mmHg 89%
14:00 +12°C° 0.1 mm 4 mps 746 mmHg 85%
15:00 +12°C° 0.1 mm 3 mps 746 mmHg 82%
16:00 +13°C° 0.1 mm 3 mps 746 mmHg 78%
17:00 +13°C° 0 mm 2 mps 747 mmHg 82%
18:00 +12°C° 0 mm 2 mps 747 mmHg 85%
19:00 +12°C° 0 mm 1 mps 747 mmHg 88%
20:00 +11°C° 0 mm 1 mps 747 mmHg 90%
21:00 +10°C° 0 mm 0 mps 747 mmHg 91%
22:00 +9°C° 0 mm 0 mps 747 mmHg 92%
23:00 +10°C° 0 mm 1 mps 748 mmHg 93%

19 May, Wednesday

Time Temperature Precipitation Wind Pressure Humidity
00:00 +10°C° 0 mm 1 mps 748 mmHg 94%
01:00 +8°C° 0 mm 2 mps 748 mmHg 94%
02:00 +8°C° 0 mm 2 mps 748 mmHg 95%
03:00 +8°C° 0 mm 2 mps 748 mmHg 96%
04:00 +7°C° 0 mm 2 mps 748 mmHg 97%
05:00 +13°C° 0 mm 4 mps 749 mmHg 68%
06:00 +12°C° 0 mm 4 mps 749 mmHg 75%
07:00 +11°C° 0 mm 4 mps 749 mmHg 81%
08:00 +12°C° 0 mm 3 mps 749 mmHg 73%
09:00 +13°C° 0 mm 3 mps 749 mmHg 68%
10:00 +15°C° 0 mm 4 mps 749 mmHg 62%
11:00 +15°C° 0 mm 4 mps 749 mmHg 65%
12:00 +14°C° 0 mm 4 mps 749 mmHg 67%
13:00 +14°C° 0 mm 4 mps 749 mmHg 69%
14:00 +12°C° 0.3 mm 4 mps 749 mmHg 77%
15:00 +13°C° 0.3 mm 4 mps 748 mmHg 73%
16:00 +14°C° 0.3 mm 4 mps 748 mmHg 69%
17:00 +13°C° 0.3 mm 3 mps 748 mmHg 75%
18:00 +12°C° 0.3 mm 3 mps 749 mmHg 80%
19:00 +10°C° 0.3 mm 3 mps 749 mmHg 85%
20:00 +9°C° 0 mm 2 mps 749 mmHg 86%
21:00 +8°C° 0 mm 2 mps 749 mmHg 88%
22:00 +7°C° 0 mm 2 mps 749 mmHg 89%
23:00 +7°C° 0 mm 2 mps 749 mmHg 91%

20 May, Thursday

Time Temperature Precipitation Wind Pressure Humidity
00:00 +7°C° 0 mm 2 mps 749 mmHg 92%
01:00 +6°C° 0 mm 2 mps 749 mmHg 93%
02:00 +6°C° 0 mm 2 mps 749 mmHg 93%
03:00 +6°C° 0 mm 2 mps 749 mmHg 93%
04:00 +5°C° 0 mm 2 mps 749 mmHg 93%
05:00 +7°C° 0 mm 3 mps 749 mmHg 89%
06:00 +7°C° 0 mm 4 mps 749 mmHg 84%
07:00 +10°C° 0 mm 4 mps 749 mmHg 80%
08:00 +10°C° 0 mm 5 mps 750 mmHg 74%
09:00 +12°C° 0 mm 5 mps 750 mmHg 68%
10:00 +14°C° 0 mm 5 mps 750 mmHg 62%
11:00 +14°C° 0.2 mm 5 mps 750 mmHg 61%
12:00 +15°C° 0.2 mm 5 mps 750 mmHg 60%
13:00 +15°C° 0.2 mm 5 mps 750 mmHg 59%
14:00 +15°C° 0.2 mm 5 mps 750 mmHg 61%
15:00 +14°C° 0.2 mm 4 mps 750 mmHg 62%
16:00 +14°C° 0.2 mm 4 mps 750 mmHg 64%
17:00 +13°C° 0.1 mm 3 mps 750 mmHg 70%
18:00 +12°C° 0.1 mm 3 mps 750 mmHg 75%
19:00 +10°C° 0.1 mm 2 mps 751 mmHg 81%
20:00 +9°C° 0 mm 2 mps 751 mmHg 84%
21:00 +9°C° 0 mm 1 mps 751 mmHg 86%
22:00 +8°C° 0 mm 1 mps 751 mmHg 89%
23:00 +8°C° 0 mm 1 mps 751 mmHg 89%

21 May, Friday

Time Temperature Precipitation Wind Pressure Humidity
00:00 +7°C° 0 mm 2 mps 751 mmHg 89%
01:00 +7°C° 0 mm 2 mps 752 mmHg 89%
02:00 +6°C° 0 mm 2 mps 752 mmHg 91%
03:00 +5°C° 0 mm 2 mps 752 mmHg 94%
04:00 +4°C° 0 mm 3 mps 752 mmHg 96%
05:00 +5°C° 0 mm 3 mps 752 mmHg 93%
06:00 +6°C° 0 mm 4 mps 752 mmHg 89%
07:00 +7°C° 0 mm 4 mps 752 mmHg 86%
08:00 +7°C° 0 mm 4 mps 752 mmHg 83%
09:00 +7°C° 0 mm 4 mps 752 mmHg 81%
10:00 +7°C° 0 mm 4 mps 752 mmHg 78%
11:00 +8°C° 0 mm 4 mps 752 mmHg 76%
12:00 +8°C° 0 mm 4 mps 752 mmHg 74%
13:00 +9°C° 0 mm 5 mps 752 mmHg 72%
14:00 +10°C° 0 mm 4 mps 752 mmHg 71%
15:00 +10°C° 0 mm 4 mps 752 mmHg 70%
16:00 +11°C° 0 mm 3 mps 751 mmHg 68%
17:00 +10°C° 0 mm 3 mps 751 mmHg 71%
18:00 +10°C° 0 mm 3 mps 751 mmHg 73%
19:00 +9°C° 0 mm 3 mps 751 mmHg 76%
20:00 +9°C° 0 mm 3 mps 751 mmHg 77%
21:00 +8°C° 0 mm 3 mps 751 mmHg 79%
22:00 +7°C° 0 mm 3 mps 751 mmHg 81%
23:00 +7°C° 0 mm 3 mps 751 mmHg 85%
Show more

We Need Your Consent

Meteoprog and our Service Providers may store and access personal data such as cookies, device identifiers or other similar technologies on your device and process such data to personalise content and ads, as well as provide social media features and to analyse the traffic.

  • Store and/or access information on your device

    Cookies, device identifiers or other information can be stored or accessed on your device for the purposes indicated above.

  • Personalised ads and content, ad and content measurement, audience insights, and products development

    Ads and content can be personalised based on a profile. More data can be added to better personalise ads and content. Ad and content performance can be measured. Insights about the audience who saw the ads and content can be derived. Such data can be used to develop or improve user’s experience, systems and software.

By clicking ‘I Agree’ you will allow the use of indicated cookies, device identifiers, web beacons or other similar technologies. Your settings can be changed in the browser on your device.

For certain purposes, legitimate interests may be relied on, rather than consent. You can read more about this in our Privacy and Cookie Policy.